Year,Month,Day,Hour,Minute,Value (Times are PST for temperature in C)
2017,08,20,00,26,13.80
2017,08,20,00,27,13.80
2017,08,20,00,28,13.80
2017,08,20,00,29,13.80
2017,08,20,01,26,13.40
2017,08,20,01,27,13.40
2017,08,20,01,28,13.40
2017,08,20,01,29,13.40
2017,08,20,02,26,13.30
2017,08,20,02,27,13.30
2017,08,20,02,28,13.30
2017,08,20,02,29,13.30
2017,08,20,03,26,12.70
2017,08,20,03,27,12.70
2017,08,20,03,28,12.70
2017,08,20,03,29,12.70
2017,08,20,04,26,12.30
2017,08,20,04,27,12.30
2017,08,20,04,28,12.30
2017,08,20,04,29,12.30
2017,08,20,05,26,12.60
2017,08,20,05,27,12.60
2017,08,20,05,28,12.60
2017,08,20,05,29,12.60
2017,08,20,05,30,12.60
2017,08,20,05,31,12.60
2017,08,20,05,32,12.60
2017,08,20,05,33,12.60
2017,08,20,05,34,12.60
2017,08,20,06,26,12.40
2017,08,20,06,27,12.40
2017,08,20,06,28,12.40
2017,08,20,06,29,12.40
2017,08,20,07,26,12.80
2017,08,20,07,27,12.80
2017,08,20,07,28,12.90
2017,08,20,07,29,12.90
2017,08,20,08,26,13.90
2017,08,20,08,27,13.90
2017,08,20,08,28,13.90
2017,08,20,08,29,13.90
2017,08,20,09,26,16.40
2017,08,20,09,27,16.60
2017,08,20,09,28,16.70
2017,08,20,09,29,16.70
2017,08,20,10,24,17.90
2017,08,20,10,26,17.80
2017,08,20,10,27,17.80
2017,08,20,10,28,17.80
2017,08,20,10,29,17.90
2017,08,20,11,24,17.30
2017,08,20,11,26,17.30
2017,08,20,11,27,17.30
2017,08,20,11,28,17.30
2017,08,20,11,29,17.30
2017,08,20,12,24,17.30
2017,08,20,12,26,17.20
2017,08,20,12,27,17.20
2017,08,20,12,28,17.20
2017,08,20,12,29,17.20
2017,08,20,13,24,17.30
2017,08,20,13,26,17.30
2017,08,20,13,27,17.30
2017,08,20,13,28,17.30
2017,08,20,13,29,17.30
2017,08,20,14,24,17.90
2017,08,20,14,26,17.90
2017,08,20,14,27,17.90
2017,08,20,14,28,17.90
2017,08,20,14,29,17.90
2017,08,20,15,24,18.80
2017,08,20,15,26,18.60
2017,08,20,15,27,18.50
2017,08,20,15,28,18.40
2017,08,20,15,29,18.30
2017,08,20,16,24,19.40
2017,08,20,16,26,19.40
2017,08,20,16,27,19.30
2017,08,20,16,28,19.20
2017,08,20,16,29,19.10
2017,08,20,17,24,19.10
2017,08,20,17,26,19.20
2017,08,20,17,27,19.20
2017,08,20,17,28,19.30
2017,08,20,17,29,19.30
2017,08,20,18,24,19.10
2017,08,20,18,26,18.90
2017,08,20,18,27,18.90
2017,08,20,18,28,18.80
2017,08,20,18,29,18.80
2017,08,20,19,25,15.90
2017,08,20,19,26,15.90
2017,08,20,19,27,15.80
2017,08,20,19,28,15.80
2017,08,20,19,29,15.80
2017,08,20,19,30,15.80
2017,08,20,19,31,15.80
2017,08,20,19,32,15.80
2017,08,20,19,33,15.80
2017,08,20,19,34,15.90
2017,08,20,20,24,18.20
2017,08,20,20,26,18.10
2017,08,20,20,27,18.10
2017,08,20,20,28,18.10
2017,08,20,20,29,18.10
2017,08,20,21,24,16.10
2017,08,20,21,26,16.10
2017,08,20,21,27,16.10
2017,08,20,21,28,16.10
2017,08,20,21,29,16.10
2017,08,20,22,24,14.80
2017,08,20,22,26,14.80
2017,08,20,22,27,14.80
2017,08,20,22,28,14.80
2017,08,20,22,29,14.70
2017,08,20,23,24,14.20
2017,08,20,23,26,14.20
2017,08,20,23,27,14.20
2017,08,20,23,28,14.20
2017,08,20,23,29,14.20
